Theta_e
340 341 343 341 341 344 343 337 336 339 339 341 341 340 338 337 334 337 338 338 342 338 340 338 338 336 335 334 333 331 331 332 331 331 330 336 339 342 344 342 331 335 337
341 342 340 339 339 338 340 341 341 342 341 341 340 340 340 340 339 342 342 341 336 337 337 338 339 339 338 334 334 342 342 340 338 336 334 335 341 341 342 338 331 332 333
341 342 340 341 341 339 339 341 341 341 340 339 341 341 339 340 339 340 339 338 338 337 340 332 329 332 334 330 341 342 343 344 344 343 340 332 335 335 335 332 331 330 329
342 341 340 339 340 340 341 340 341 340 343 341 341 341 338 334 342 339 340 340 340 339 336 333 328 328 327 334 344 344 344 345 345 344 345 343 330 330 331 331 332 332 331
341 341 337 337 340 340 340 340 339 329 325 321 321 336 337 333 338 340 337 337 334 330 329 328 325 328 332 335 342 344 343 347 344 345 344 343 328 331 333 336 337 332 330
341 340 336 340 339 340 340 330 322 328 346 341 317 325 331 332 335 334 332 329 328 326 325 325 324 324 331 338 345 346 344 346 345 345 343 341 326 330 331 330 333 332 330
340 338 338 340 338 337 324 323 324 339 344 342 319 325 329 332 331 329 329 328 327 326 325 325 325 325 332 343 345 346 347 346 345 345 342 332 325 328 332 329 331 334 332
338 338 337 339 335 323 324 331 332 335 322 321 321 326 330 330 329 329 329 329 328 328 328 327 327 329 334 338 340 341 342 344 343 339 329 329 329 329 330 329 328 330 332
337 334 339 338 332 326 331 327 324 324 326 328 329 330 329 330 330 330 330 330 330 330 330 329 331 334 337 339 341 341 342 342 342 339 330 330 331 331 331 331 332 332 331
341 335 339 335 326 332 330 331 333 336 333 332 332 333 337 336 335 335 335 333 334 336 333 332 334 335 337 338 340 341 340 341 339 336 331 331 332 332 332 332 332 333 333
348 341 338 336 329 333 332 346 348 350 350 350 350 347 345 339 340 337 336 340 349 350 349 345 342 341 337 337 337 339 340 341 339 335 335 335 335 335 336 336 336 336 336
349 346 347 344 337 334 332 338 340 340 351 347 346 348 346 339 344 347 349 349 351 350 352 353 353 350 348 344 338 338 339 341 337 340 339 341 340 340 341 341 341 341 340
350 350 340 349 345 341 338 348 340 340 345 350 345 345 348 344 344 349 348 351 350 351 349 349 345 340 339 340 349 348 343 342 338 344 341 341 342 342 342 342 343 343 343
349 344 343 348 346 342 343 346 348 342 342 348 349 348 349 348 353 350 347 349 350 344 343 351 351 351 337 342 347 339 347 343 341 344 341 343 343 342 342 343 344 345 346
348 346 343 347 347 347 348 348 348 346 339 344 343 347 337 346 349 349 348 348 349 350 351 349 351 349 342 344 344 341 342 345 343 344 340 342 344 344 345 345 345 345 345
349 344 350 350 347 345 347 346 346 340 345 346 343 338 346 345 344 345 348 349 348 345 343 349 350 348 338 339 340 340 339 336 346 345 345 347 344 349 345 345 346 346 347
349 347 347 350 350 345 344 346 343 343 345 347 350 348 340 341 347 351 337 349 350 343 348 349 348 348 335 337 346 345 342 342 344 346 342 345 346 343 341 348 349 348 351
348 350 347 347 340 340 342 343 342 343 346 346 345 345 338 335 340 347 351 352 349 344 346 347 350 350 349 349 348 341 335 348 349 347 348 348 346 347 338 342 350 352 353
349 349 348 346 338 337 343 345 350 349 342 344 344 346 345 345 336 343 346 345 346 343 343 345 346 350 350 344 349 350 349 347 349 349 348 345 343 348 346 349 349 347 353
348 349 349 347 347 341 347 350 350 345 346 350 345 343 345 345 345 345 336 345 347 343 344 344 346 346 346 342 347 348 346 343 348 346 346 342 343 347 350 350 350 352 349
349 348 345 348 348 346 348 344 347 346 348 349 350 350 348 350 352 350 346 348 350 350 350 348 346 344 336 341 347 347 350 342 346 349 345 339 345 349 351 352 352 353 352
349 348 348 351 347 346 344 346 350 351 351 350 348 349 348 349 349 351 350 349 349 350 350 348 351 351 350 345 346 348 348 345 340 346 347 344 342 344 344 348 348 351 351
349 349 348 350 347 346 344 350 352 350 350 349 349 351 349 347 346 348 349 350 347 347 348 348 350 351 353 350 349 348 347 348 348 345 343 338 337 343 344 345 345 347 350
350 350 349 349 347 347 345 350 350 349 348 346 351 350 348 344 349 349 349 350 348 349 350 349 348 350 352 352 354 349 345 351 353 350 346 346 342 343 344 342 342 344 341
348 347 349 346 345 340 349 350 351 350 349 346 349 346 345 345 345 343 340 350 345 348 349 350 352 349 349 349 350 350 350 345 347 352 350 347 345 343 342 342 342 340 341
348 348 349 350 348 347 344 348 348 349 351 351 350 347 345 344 344 341 340 339 337 342 345 349 348 348 348 349 348 347 349 350 347 349 350 349 352 351 349 347 342 340 341
Wind_Speed
13 14 14 15 16 17 17 17 17 17 18 18 19 19 20 19 18 17 17 19 19 18 18 18 19 19 18 18 18 18 17 17 16 15 15 16 17 19 19 14 11 15 14
17 17 14 16 16 17 18 18 17 16 16 17 17 18 18 18 18 18 18 18 17 18 18 17 18 18 19 19 20 23 23 23 22 20 14 13 14 15 14 12 12 13 13
18 16 17 16 17 16 16 15 15 14 14 15 15 15 16 16 16 17 17 17 17 17 15 16 16 16 18 19 23 22 21 21 19 17 16 11 13 13 12 11 11 12 12
18 18 17 15 16 15 15 13 13 13 13 14 15 16 16 16 16 17 16 16 16 14 14 14 15 17 19 22 23 22 23 19 15 12 8 8 8 11 12 12 12 13 12
17 18 17 17 15 14 12 12 12 12 13 12 12 14 14 16 16 16 15 15 15 14 13 14 14 16 19 22 21 22 19 16 16 11 6 5 7 12 12 13 11 12 12
18 18 17 16 15 13 12 11 12 13 11 12 14 15 16 16 16 16 17 16 16 15 15 15 16 17 21 24 21 20 21 18 12 8 4 4 8 11 11 11 10 10 10
21 19 17 15 14 14 13 13 13 13 12 13 16 18 18 18 18 18 18 17 17 18 18 18 18 19 22 23 20 20 19 17 9 4 5 6 9 11 12 11 10 12 9
20 18 18 15 14 14 15 14 14 13 15 17 19 20 20 20 19 19 18 19 19 19 20 21 21 21 22 21 22 22 20 16 5 9 8 10 11 12 13 12 10 11 10
18 18 17 16 15 16 16 19 22 24 25 25 24 23 22 21 20 19 19 19 20 21 22 23 24 24 23 22 22 19 17 11 8 8 9 10 11 12 13 12 11 9 10
13 18 18 16 17 18 22 28 29 29 28 27 25 24 21 19 19 20 19 21 22 22 22 22 22 22 21 20 18 15 17 10 7 11 8 10 11 11 11 11 9 8 8
12 11 16 18 21 22 27 28 24 19 16 14 15 17 20 19 20 21 21 22 20 18 17 16 14 12 14 16 14 12 13 8 5 8 9 10 11 11 11 11 9 8 6
16 13 17 20 24 23 26 23 17 14 13 14 13 15 16 18 18 16 13 13 12 10 8 9 9 6 3 3 10 8 4 10 3 9 8 11 11 11 11 11 10 9 7
19 14 15 15 20 19 16 14 17 11 16 11 12 11 7 7 5 8 10 11 9 9 6 9 10 18 18 3 2 2 5 4 8 6 8 9 10 10 10 9 9 7 7
20 16 15 12 14 15 11 5 11 13 7 14 12 6 5 7 2 3 7 8 5 13 10 11 8 4 0 8 6 5 5 5 8 2 5 4 7 8 9 8 7 6 5
22 20 14 11 15 10 9 9 12 8 13 10 11 11 8 5 7 10 8 6 9 8 6 9 9 5 3 9 5 13 2 9 9 10 4 5 1 1 2 5 6 7 7
19 24 19 17 17 17 13 12 11 4 10 11 10 3 9 3 8 7 4 5 5 4 0 7 9 9 8 3 6 15 10 4 9 15 3 2 8 4 2 4 5 5 8
19 25 21 19 17 16 16 13 11 10 7 6 3 4 3 11 6 5 9 3 5 2 3 6 7 6 8 12 4 10 2 2 3 6 3 6 1 6 10 10 9 7 7
22 24 19 18 15 13 19 18 13 7 6 5 6 3 3 2 8 5 7 6 3 3 3 9 7 6 6 8 6 6 8 10 17 8 6 2 3 16 16 10 10 7 5
21 22 15 16 14 14 23 19 9 7 11 9 6 7 8 6 5 11 3 4 10 8 7 6 9 6 6 6 10 14 15 13 16 3 6 13 12 6 0 2 3 4 3
26 20 13 19 13 12 19 15 11 14 12 6 11 8 8 5 4 5 9 2 6 8 5 10 12 13 15 11 8 8 11 8 15 2 6 10 15 9 4 7 3 4 5
24 22 21 19 18 13 14 14 14 10 7 6 7 4 9 4 2 8 10 4 7 7 4 8 13 13 12 8 10 11 11 9 7 7 7 6 11 4 5 8 8 9 11
24 22 24 18 22 17 13 13 7 5 12 12 8 13 12 12 7 7 8 11 13 13 11 11 14 14 13 9 14 15 13 15 8 13 14 10 9 12 15 12 15 15 21
21 23 31 22 21 19 15 11 9 10 7 5 7 6 12 15 14 10 10 13 17 17 18 10 12 10 12 15 12 13 11 11 25 18 18 13 13 11 10 11 17 19 21
24 27 29 29 26 20 18 14 11 6 8 8 6 7 6 10 14 10 11 11 16 12 17 14 16 16 15 15 13 10 14 18 22 27 20 17 12 12 15 16 16 12 20
25 24 28 30 27 21 19 16 13 12 10 11 10 7 7 9 12 11 12 18 19 18 13 15 18 17 19 21 20 21 22 22 20 22 25 22 19 16 18 19 18 15 18
27 22 25 24 23 19 19 17 16 14 12 16 11 13 8 7 9 12 9 12 15 13 14 15 17 18 20 21 22 23 22 23 25 24 26 26 25 24 21 20 16 17 17
Wind_Direction
127 116 108 105 99 100 103 97 96 96 95 96 96 96 95 97 98 101 100 101 103 104 106 106 111 113 113 111 109 109 110 110 107 105 110 111 112 110 104 91 106 106 106
125 118 110 107 105 103 102 99 96 95 96 98 100 99 100 100 99 101 102 105 105 104 106 109 112 114 113 110 110 109 104 105 99 91 87 107 107 108 108 94 102 109 109
129 124 117 112 109 107 103 98 97 98 98 99 102 104 105 102 101 104 105 107 108 106 102 105 108 112 111 111 110 102 98 96 89 79 80 82 111 109 105 103 109 104 108
127 125 118 116 110 105 100 95 97 98 100 103 107 103 105 109 107 106 105 107 109 108 107 107 104 106 116 121 109 107 94 94 97 90 77 56 105 111 113 114 113 110 105
127 126 121 116 110 101 95 95 95 96 95 93 114 117 108 107 112 111 109 110 110 106 106 105 106 111 117 129 117 104 99 96 101 123 135 62 116 113 112 108 110 105 98
140 130 120 114 105 100 101 94 96 102 91 96 102 113 109 110 111 112 110 108 105 103 101 101 105 112 119 125 119 107 95 99 97 108 75 103 102 109 109 104 109 102 111
139 130 124 112 104 102 99 99 101 102 95 95 100 111 110 111 111 110 109 106 103 102 100 99 100 107 120 124 118 113 108 106 113 66 27 88 103 106 103 102 106 105 108
134 129 119 107 99 97 98 96 96 92 98 97 102 106 109 110 109 107 105 103 102 100 97 95 95 103 111 115 112 109 107 109 107 43 74 94 95 96 96 101 105 112 114
135 127 116 108 101 98 93 95 98 98 97 97 98 100 102 102 101 99 98 97 97 96 94 92 92 95 100 98 93 97 98 111 73 45 62 81 88 90 92 95 98 98 104
127 127 116 105 106 100 101 105 104 98 94 94 97 96 95 95 95 96 94 95 95 93 90 94 97 103 102 102 102 102 102 113 56 30 56 75 81 84 86 89 89 90 86
136 119 119 113 107 105 113 113 106 97 95 95 98 97 88 93 97 93 90 98 87 84 82 83 85 99 114 111 112 120 126 138 73 19 63 73 78 80 80 80 79 79 78
161 140 120 118 112 110 117 113 107 91 100 100 97 103 98 100 103 85 71 79 67 72 67 58 55 51 356 162 127 129 134 157 135 34 57 68 74 76 78 77 74 73 69
172 153 150 126 118 118 140 112 91 99 107 113 106 112 111 112 90 78 74 67 60 46 31 94 63 83 51 16 221 114 156 206 180 17 43 63 65 69 69 69 66 60 60
166 136 147 127 144 123 144 121 129 124 127 139 133 134 138 131 195 143 43 15 67 45 93 54 55 135 127 316 114 118 176 204 216 197 9 49 60 61 55 47 41 29 27
164 155 170 149 151 157 159 164 184 163 125 141 123 139 141 129 118 139 127 90 79 62 43 32 356 82 295 239 79 121 98 185 210 216 271 282 220 247 329 353 7 355 348
166 159 161 160 160 167 150 136 139 130 143 146 125 152 150 136 150 168 106 80 107 235 218 50 337 347 98 332 100 68 118 177 179 214 261 239 238 289 253 252 265 285 313
173 168 176 190 179 188 172 140 138 118 116 150 135 312 301 172 158 87 195 74 117 128 36 16 1 11 62 186 85 69 145 49 232 175 335 245 258 323 316 288 272 270 298
178 183 186 196 199 183 169 161 154 171 237 197 252 299 345 252 208 195 70 44 330 247 260 354 351 357 356 19 100 60 24 281 316 291 264 342 334 340 328 285 256 269 304
183 186 197 189 186 163 156 161 164 188 173 185 250 263 278 311 263 208 227 324 352 310 241 300 308 306 306 309 348 331 328 343 6 256 183 329 322 8 260 289 286 267 275
192 191 190 171 187 179 166 168 174 178 177 224 221 254 278 310 300 282 255 339 332 5 304 309 300 289 292 288 269 328 316 301 346 286 286 310 318 307 311 341 327 287 300
187 199 178 183 195 203 180 169 152 155 197 238 238 202 203 200 297 300 318 282 350 316 340 303 311 329 298 275 303 306 304 310 342 316 11 349 338 348 292 292 300 283 299
188 193 182 188 196 206 198 167 178 224 226 240 245 234 250 252 244 254 289 299 288 286 291 310 337 319 338 321 322 331 329 307 292 308 314 305 307 314 315 306 302 292 290
180 186 177 191 192 205 201 175 220 230 251 234 228 250 277 257 238 250 272 279 291 297 291 287 312 312 310 309 312 316 330 311 316 313 313 316 291 287 293 301 300 284 301
194 192 195 199 209 210 187 189 215 234 237 249 268 271 281 242 260 272 246 287 274 275 296 288 288 289 296 300 298 290 281 305 316 320 311 316 319 318 312 312 311 296 301
196 195 202 203 203 189 194 193 207 217 236 247 279 309 313 277 274 286 267 298 280 279 278 278 278 279 281 289 290 290 284 280 281 299 311 310 300 297 301 299 300 302 301
199 197 190 196 199 195 185 207 225 228 232 255 268 269 284 282 267 293 287 301 283 272 286 295 296 293 292 291 292 289 287 289 291 292 293 295 298 300 301 302 304 294 293